Location: Rometta
(44.2000°N, 10.0500°E)
Time: 11:09:03
(UTC+00:00)

Cosmos 1818 - Pass Details

Date: 16 May 2021
Orbit: 771 x 802 km, 65.0° (Epoch: 15 June)

Event Time Altitude Azimuth Distance (km) Brightness Sun altitude
Rises 19:46:08 0° 330° (NNW) 3,320 8.3 -10.4°
Reaches altitude 10° 19:48:55 10° 342° (NNW) 2,387 7.0 -10.8°
Maximum altitude 19:53:37 28° 41° (NE) 1,468 5.0 -11.5°
Enters shadow 19:58:08 11° 99° (E) 2,321 5.5 -12.1°
